Time,TemperatureF,DewpointF,PressureIn,WindDirection,WindDirectionDegrees,WindSpeedMPH,WindSpeedGustMPH,Humidity,HourlyPrecipIn,Conditions,Clouds,dailyrainin,SoftwareType,DateUTC
2013-03-12 00:10:00,54.0,15.0,29.99,North,8,2.0,3.0,21,0.00,,,0.00,weatherlink.com 1.10,2013-03-12 06:10:00,
2013-03-12 00:25:00,53.8,15.0,29.99,North,349,1.0,3.0,21,0.00,,,0.00,weatherlink.com 1.10,2013-03-12 06:25:00,
2013-03-12 00:40:00,53.3,15.0,29.99,WSW,248,0.0,4.0,22,0.00,,,0.00,weatherlink.com 1.10,2013-03-12 06:40:00,
2013-03-12 00:55:00,52.8,15.0,29.99,WSW,243,0.0,3.0,22,0.00,,,0.00,weatherlink.com 1.10,2013-03-12 06:55:00,
2013-03-12 01:10:00,52.8,16.0,29.99,North,349,2.0,2.0,23,0.00,,,0.00,weatherlink.com 1.10,2013-03-12 07:10:00,
2013-03-12 01:25:00,51.7,16.0,29.99,NNW,335,0.0,3.0,24,0.00,,,0.00,weatherlink.com 1.10,2013-03-12 07:25:00,
2013-03-12 01:40:00,51.7,16.0,29.99,SW,232,0.0,1.0,24,0.00,,,0.00,weatherlink.com 1.10,2013-03-12 07:40:00,
2013-03-12 01:55:00,52.1,15.0,29.99,East,81,1.0,2.0,23,0.00,,,0.00,weatherlink.com 1.10,2013-03-12 07:55:00,
2013-03-12 02:10:00,52.2,15.0,29.99,NE,39,1.0,2.0,23,0.00,,,0.00,weatherlink.com 1.10,2013-03-12 08:10:00,
2013-03-12 02:25:00,51.4,16.0,29.99,North,11,2.0,2.0,24,0.00,,,0.00,weatherlink.com 1.10,2013-03-12 08:25:00,
2013-03-12 02:40:00,51.0,15.0,29.99,North,11,1.0,3.0,24,0.00,,,0.00,weatherlink.com 1.10,2013-03-12 08:40:00,
2013-03-12 02:55:00,51.3,15.0,29.99,North,354,4.0,5.0,24,0.00,,,0.00,weatherlink.com 1.10,2013-03-12 08:55:00,
2013-03-12 03:10:00,51.0,15.0,29.99,North,356,3.0,4.0,24,0.00,,,0.00,weatherlink.com 1.10,2013-03-12 09:10:00,
2013-03-12 03:25:00,50.7,15.0,29.99,North,1,2.0,5.0,24,0.00,,,0.00,weatherlink.com 1.10,2013-03-12 09:25:00,
2013-03-12 03:40:00,50.6,15.0,29.99,North,357,3.0,4.0,24,0.00,,,0.00,weatherlink.com 1.10,2013-03-12 09:40:00,
2013-03-12 03:55:00,50.1,14.0,29.98,North,356,0.0,2.0,24,0.00,,,0.00,weatherlink.com 1.10,2013-03-12 09:55:00,
2013-03-12 04:10:00,50.9,14.0,29.98,NNE,23,0.0,0.0,23,0.00,,,0.00,weatherlink.com 1.10,2013-03-12 10:10:00,
2013-03-12 04:25:00,49.3,13.0,29.98,NNE,23,0.0,0.0,23,0.00,,,0.00,weatherlink.com 1.10,2013-03-12 10:25:00,
2013-03-12 04:40:00,48.4,14.0,29.98,ESE,105,0.0,2.0,25,0.00,,,0.00,weatherlink.com 1.10,2013-03-12 10:40:00,
2013-03-12 04:55:00,47.7,13.0,29.98,East,88,0.0,1.0,25,0.00,,,0.00,weatherlink.com 1.10,2013-03-12 10:55:00,
2013-03-12 05:11:00,47.2,14.0,29.98,ESE,121,0.0,1.0,26,0.00,,,0.00,weatherlink.com 1.10,2013-03-12 11:11:00,
2013-03-12 05:26:00,46.8,13.0,29.98,ESE,103,0.0,0.0,25,0.00,,,0.00,weatherlink.com 1.10,2013-03-12 11:26:00,
2013-03-12 05:41:00,46.8,13.0,29.99,ESE,103,0.0,0.0,26,0.00,,,0.00,weatherlink.com 1.10,2013-03-12 11:41:00,
2013-03-12 05:56:00,46.4,14.0,29.99,ENE,77,0.0,2.0,27,0.00,,,0.00,weatherlink.com 1.10,2013-03-12 11:56:00,
2013-03-12 06:11:00,45.7,14.0,29.99,ENE,77,1.0,1.0,28,0.00,,,0.00,weatherlink.com 1.10,2013-03-12 12:11:00,
2013-03-12 06:26:00,46.1,14.0,29.99,ENE,78,0.0,0.0,27,0.00,,,0.00,weatherlink.com 1.10,2013-03-12 12:26:00,
2013-03-12 06:41:00,45.2,14.0,30.00,ESE,105,1.0,2.0,28,0.00,,,0.00,weatherlink.com 1.10,2013-03-12 12:41:00,
2013-03-12 07:41:00,44.8,14.0,30.02,ESE,121,2.0,3.0,29,0.00,,,0.00,weatherlink.com 1.10,2013-03-12 13:41:00,
2013-03-12 08:11:00,44.2,14.0,30.04,ESE,117,1.0,2.0,30,0.00,,,0.00,weatherlink.com 1.10,2013-03-12 14:11:00,
2013-03-12 08:26:00,44.7,16.0,30.04,North,349,0.0,3.0,32,0.00,,,0.00,weatherlink.com 1.10,2013-03-12 14:26:00,
2013-03-12 08:41:00,48.6,16.0,30.05,SSE,153,0.0,2.0,27,0.00,,,0.00,weatherlink.com 1.10,2013-03-12 14:41:00,
2013-03-12 09:11:00,51.9,17.0,30.06,SE,145,1.0,2.0,25,0.00,,,0.00,weatherlink.com 1.10,2013-03-12 15:11:00,
2013-03-12 09:26:00,51.6,20.0,30.06,WSW,250,2.0,4.0,29,0.00,,,0.00,weatherlink.com 1.10,2013-03-12 15:26:00,
2013-03-12 09:41:00,53.7,17.0,30.07,SW,229,2.0,4.0,23,0.00,,,0.00,weatherlink.com 1.10,2013-03-12 15:41:00,
2013-03-12 09:56:00,54.8,17.0,30.07,SW,232,3.0,4.0,23,0.00,,,0.00,weatherlink.com 1.10,2013-03-12 15:56:00,
2013-03-12 10:11:00,56.5,17.0,30.08,SW,229,3.0,3.0,21,0.00,,,0.00,weatherlink.com 1.10,2013-03-12 16:11:00,
2013-03-12 10:26:00,56.3,16.0,30.08,South,187,3.0,4.0,20,0.00,,,0.00,weatherlink.com 1.10,2013-03-12 16:26:00,
2013-03-12 10:56:00,55.9,17.0,30.10,West,259,3.0,6.0,22,0.00,,,0.00,weatherlink.com 1.10,2013-03-12 16:56:00,
2013-03-12 11:11:00,56.7,17.0,30.10,SSE,167,2.0,5.0,21,0.00,,,0.00,weatherlink.com 1.10,2013-03-12 17:11:00,
2013-03-12 11:41:00,60.6,19.0,30.10,WSW,245,2.0,7.0,20,0.00,,,0.00,weatherlink.com 1.10,2013-03-12 17:41:00,
2013-03-12 11:57:00,62.0,18.0,30.10,NNW,335,5.0,11.0,18,0.00,,,0.00,weatherlink.com 1.10,2013-03-12 17:57:00,
2013-03-12 12:12:00,62.7,18.0,30.09,ENE,74,6.0,11.0,18,0.00,,,0.00,weatherlink.com 1.10,2013-03-12 18:12:00,
2013-03-12 12:27:00,63.5,19.0,30.09,ENE,62,5.0,19.0,18,0.00,,,0.00,weatherlink.com 1.10,2013-03-12 18:27:00,
2013-03-12 12:42:00,64.4,18.0,30.09,NE,37,7.0,16.0,17,0.00,,,0.00,weatherlink.com 1.10,2013-03-12 18:42:00,
2013-03-12 12:57:00,64.8,17.0,30.09,NW,326,5.0,14.0,16,0.00,,,0.00,weatherlink.com 1.10,2013-03-12 18:57:00,
2013-03-12 13:12:00,65.8,18.0,30.09,NNW,338,4.0,11.0,16,0.00,,,0.00,weatherlink.com 1.10,2013-03-12 19:12:00,
2013-03-12 13:27:00,66.2,17.0,30.07,NNW,337,4.0,14.0,15,0.00,,,0.00,weatherlink.com 1.10,2013-03-12 19:27:00,
2013-03-12 13:42:00,66.6,17.0,30.07,NE,48,11.0,19.0,15,0.00,,,0.00,weatherlink.com 1.10,2013-03-12 19:42:00,
2013-03-12 13:57:00,67.2,15.0,30.06,East,99,9.0,14.0,13,0.00,,,0.00,weatherlink.com 1.10,2013-03-12 19:57:00,
2013-03-12 14:12:00,67.5,15.0,30.05,East,98,4.0,9.0,13,0.00,,,0.00,weatherlink.com 1.10,2013-03-12 20:12:00,
2013-03-12 14:27:00,68.8,16.0,30.05,NNW,335,0.0,8.0,13,0.00,,,0.00,weatherlink.com 1.10,2013-03-12 20:27:00,
2013-03-12 14:42:00,68.4,14.0,30.04,East,79,15.0,15.0,12,0.00,,,0.00,weatherlink.com 1.10,2013-03-12 20:42:00,
2013-03-12 14:57:00,67.5,13.0,30.04,ESE,107,7.0,12.0,12,0.00,,,0.00,weatherlink.com 1.10,2013-03-12 20:57:00,
2013-03-12 15:12:00,67.6,13.0,30.03,SE,130,7.0,16.0,12,0.00,,,0.00,weatherlink.com 1.10,2013-03-12 21:12:00,
2013-03-12 15:27:00,68.4,14.0,30.02,East,98,4.0,12.0,12,0.00,,,0.00,weatherlink.com 1.10,2013-03-12 21:27:00,
2013-03-12 15:42:00,69.1,12.0,30.02,South,169,1.0,9.0,11,0.00,,,0.00,weatherlink.com 1.10,2013-03-12 21:42:00,
2013-03-12 15:57:00,69.4,14.0,30.02,NNW,340,4.0,9.0,12,0.00,,,0.00,weatherlink.com 1.10,2013-03-12 21:57:00,
2013-03-12 16:12:00,69.0,14.0,30.02,ESE,109,5.0,13.0,12,0.00,,,0.00,weatherlink.com 1.10,2013-03-12 22:12:00,
2013-03-12 16:27:00,69.2,14.0,30.01,South,187,2.0,12.0,12,0.00,,,0.00,weatherlink.com 1.10,2013-03-12 22:27:00,
2013-03-12 16:42:00,69.2,14.0,30.01,ENE,60,6.0,12.0,12,0.00,,,0.00,weatherlink.com 1.10,2013-03-12 22:42:00,
2013-03-12 16:57:00,68.9,14.0,30.00,ESE,112,4.0,9.0,12,0.00,,,0.00,weatherlink.com 1.10,2013-03-12 22:57:00,
2013-03-12 17:12:00,69.6,15.0,30.01,NNE,20,5.0,9.0,12,0.00,,,0.00,weatherlink.com 1.10,2013-03-12 23:12:00,
2013-03-12 17:27:00,69.4,14.0,30.01,East,91,7.0,10.0,12,0.00,,,0.00,weatherlink.com 1.10,2013-03-12 23:27:00,
2013-03-12 17:42:00,68.2,14.0,30.01,NNW,346,4.0,14.0,12,0.00,,,0.00,weatherlink.com 1.10,2013-03-12 23:42:00,
2013-03-12 17:57:00,68.4,16.0,30.02,SE,132,5.0,12.0,13,0.00,,,0.00,weatherlink.com 1.10,2013-03-12 23:57:00,
2013-03-12 18:12:00,67.9,15.0,30.02,ENE,59,8.0,14.0,13,0.00,,,0.00,weatherlink.com 1.10,2013-03-13 00:12:00,
2013-03-12 18:27:00,68.1,15.0,30.02,East,92,11.0,11.0,13,0.00,,,0.00,weatherlink.com 1.10,2013-03-13 00:27:00,
2013-03-12 18:42:00,67.5,15.0,30.02,East,91,4.0,10.0,13,0.00,,,0.00,weatherlink.com 1.10,2013-03-13 00:42:00,
2013-03-12 18:57:00,67.3,15.0,30.02,East,95,7.0,7.0,13,0.00,,,0.00,weatherlink.com 1.10,2013-03-13 00:57:00,
2013-03-12 19:12:00,66.5,14.0,30.03,East,92,3.0,11.0,13,0.00,,,0.00,weatherlink.com 1.10,2013-03-13 01:12:00,
2013-03-12 19:29:00,65.8,15.0,30.03,ESE,107,6.0,11.0,14,0.00,,,0.00,weatherlink.com 1.10,2013-03-13 01:29:00,
2013-03-12 19:42:00,65.4,15.0,30.04,East,92,4.0,8.0,14,0.00,,,0.00,weatherlink.com 1.10,2013-03-13 01:42:00,
2013-03-12 19:57:00,65.1,15.0,30.04,ESE,103,4.0,7.0,14,0.00,,,0.00,weatherlink.com 1.10,2013-03-13 01:57:00,
2013-03-12 20:12:00,65.1,15.0,30.04,East,99,11.0,12.0,14,0.00,,,0.00,weatherlink.com 1.10,2013-03-13 02:12:00,
2013-03-12 20:42:00,62.7,18.0,30.06,ESE,105,15.0,22.0,18,0.00,,,0.00,weatherlink.com 1.10,2013-03-13 02:42:00,
2013-03-12 20:57:00,61.8,19.0,30.06,ESE,115,12.0,21.0,19,0.00,,,0.00,weatherlink.com 1.10,2013-03-13 02:57:00,
2013-03-12 21:12:00,60.8,20.0,30.07,ENE,71,14.0,23.0,21,0.00,,,0.00,weatherlink.com 1.10,2013-03-13 03:12:00,
2013-03-12 21:27:00,59.9,21.0,30.07,East,101,15.0,27.0,22,0.00,,,0.00,weatherlink.com 1.10,2013-03-13 03:27:00,
2013-03-12 21:42:00,59.1,21.0,30.08,ESE,123,16.0,25.0,23,0.00,,,0.00,weatherlink.com 1.10,2013-03-13 03:42:00,
2013-03-12 21:57:00,58.7,21.0,30.08,ESE,110,23.0,25.0,23,0.00,,,0.00,weatherlink.com 1.10,2013-03-13 03:57:00,
2013-03-12 22:12:00,58.3,21.0,30.08,ESE,103,19.0,28.0,24,0.00,,,0.00,weatherlink.com 1.10,2013-03-13 04:12:00,
2013-03-12 22:27:00,58.0,21.0,30.08,East,101,24.0,29.0,24,0.00,,,0.00,weatherlink.com 1.10,2013-03-13 04:27:00,
2013-03-12 22:42:00,57.4,22.0,30.09,ESE,108,13.0,28.0,25,0.00,,,0.00,weatherlink.com 1.10,2013-03-13 04:42:00,
2013-03-12 22:57:00,57.0,22.0,30.10,East,101,19.0,32.0,26,0.00,,,0.00,weatherlink.com 1.10,2013-03-13 04:57:00,
2013-03-12 23:12:00,56.4,23.0,30.10,ESE,112,17.0,30.0,27,0.00,,,0.00,weatherlink.com 1.10,2013-03-13 05:12:00,
2013-03-12 23:27:00,55.9,23.0,30.09,East,93,24.0,36.0,28,0.00,,,0.00,weatherlink.com 1.10,2013-03-13 05:27:00,
2013-03-12 23:42:00,55.7,23.0,30.10,East,101,25.0,36.0,28,0.00,,,0.00,weatherlink.com 1.10,2013-03-13 05:42:00,
2013-03-12 23:57:00,55.7,23.0,30.10,ESE,103,22.0,37.0,28,0.00,,,0.00,weatherlink.com 1.10,2013-03-13 05:57:00,